Regional Weather Roundup
Issued by NWS

Home | Current Version | Previous Version | Graphics & Text | Print | Product List | Glossary On
Versions: 1 2 3 4 5 6 7 8 9 10 11 12 13 14 15 16 17 18 19 20 21 22 23 24 25 26 27 28 29 30 31 32 33 34 35 36 37 38 39 40 41 42 43 44 45 46 47 48 49 50
000
ASUS43 KBIS 152010
RWRND

NORTH DAKOTA REGIONAL WEATHER ROUNDUP
NATIONAL WEATHER SERVICE BISMARCK ND
200 PM CST SUN JAN 15 2017

NOTE: "FAIR" INDICATES FEW OR NO CLOUDS BELOW 12,000 FEET WITH NO
SIGNIFICANT WEATHER AND/OR OBSTRUCTIONS TO VISIBILITY.


NDZ001>003-009>011-017-152100-
NORTHWEST NORTH DAKOTA

CITY           SKY/WX    TMP DP  RH WIND       PRES   REMARKS
WILLISTON      FAIR      16   5  62 SW12      29.98F WCI   3
MINOT          FAIR      24  11  57 SW15      29.95F WCI  11
$$

NDZ018>021-031>035-040>046-152100-
SOUTHWEST NORTH DAKOTA

CITY           SKY/WX    TMP DP  RH WIND       PRES   REMARKS
BISMARCK       FAIR      10   1  67 CALM      30.06F
DICKINSON      FAIR      23  12  62 SW13      29.97F WCI  11
GARRISON         N/A     16   9  74 CALM      29.99F
HETTINGER ARPT CLOUDY    23  12  62 W10       30.03F WCI  12
$$

NDZ004>008-012>016-024-026-027-054-152100-
NORTHEAST NORTH DAKOTA

CITY           SKY/WX    TMP DP  RH WIND       PRES   REMARKS
GRAND FORKS    CLOUDY    15   7  70 S13       30.04F WCI   1
GRND FRKS AFB  CLOUDY    21   8  57 SW8       30.03F WCI  11
DEVILS LAKE    FAIR      17   9  70 W16       29.99F WCI   2
$$

NDZ022-023-025-028>030-036>039-047>053-152100-
SOUTHEAST NORTH DAKOTA

CITY           SKY/WX    TMP DP  RH WIND       PRES   REMARKS
FARGO          SUNNY     20  12  71 S9        30.10F WCI   9
JAMESTOWN      FAIR      22  11  62 W9        30.03F WCI  12
$$





USA.gov is the U.S. government's official web portal to all federal, state and local government web resources and services.